Location: Rathdrum
(47.8130°N, 116.8960°W)
Time: 19:00:46
(UTC-07:00)

Amateur Radio Satellites - All Passes

Search period start: 01 July 2016 18:30
Search period end: 02 July 2016 18:30
Location: Rathdrum, 47.8130°N, 116.8960°W

Satellite Date Start Highest point End Downlink Frequencies (MHz)
Time Altitude Azimuth
AIST 1 01 Jul 18:34:31 18:36:32 13° 296° (WNW) 18:38:34
DANDE 01 Jul 18:40:14 18:45:10 68° 76° (ENE) 18:48:47 436.750
Cubesat XI-IV 01 Jul 18:42:22 18:47:34 50° 261° (W) 18:52:49 437.490
LilacSat-2 01 Jul 18:45:15 18:48:47 37° 263° (W) 18:52:22 437.200
STRAND 1 01 Jul 18:46:43 18:49:12 13° 87° (E) 18:51:40 437.568
DOVE 4 01 Jul 18:53:29 18:57:43 73° 74° (ENE) 19:01:52 437.250
Cosmos 2499 01 Jul 18:55:56 19:04:24 82° 97° (E) 19:13:21 435.465 / 435.565
COMPASS 1 01 Jul 19:05:53 19:08:26 16° 61° (ENE) 19:10:58 437.405
NOAA 18 01 Jul 19:06:24 19:11:10 30° 265° (W) 19:15:59 137.9125
CUBESAT XI-V 01 Jul 19:14:42 19:18:48 32° 294° (WNW) 19:22:52 437.345
SO-50 01 Jul 19:16:21 19:17:41 11° 352° (N) 19:19:01 436.795
CANX-2 01 Jul 19:16:24 19:20:23 39° 69° (ENE) 19:24:25 2200.000
CUTE-I 01 Jul 19:16:34 19:21:04 27° 267° (W) 19:25:37 437.470
AUBIESAT-1 01 Jul 19:21:53 19:22:20 10° 52° (NE) 19:22:47 437.475
CINEMA 3 01 Jul 19:23:10 19:27:07 44° 70° (ENE) 19:31:08 145.822/145.860
GONETS M04 01 Jul 19:32:21 19:40:44 50° 288° (WNW) 19:49:11
SEEDS 01 Jul 19:33:06 19:37:02 37° 69° (ENE) 19:40:59 437.485
NOAA 15 01 Jul 19:35:12 19:37:59 14° 272° (W) 19:40:46 137.62
CUTE 1.7 + AOD 2 01 Jul 19:35:28 19:39:38 53° 72° (ENE) 19:43:50 437.475
BRITE-PL 01 Jul 19:37:13 19:38:58 12° 272° (W) 19:40:40 437.365/2234.400
UWE-3 01 Jul 19:37:30 19:40:12 16° 60° (ENE) 19:42:56 435.000/436.395/437.385
HO-68 01 Jul 19:42:29 19:49:38 82° 71° (ENE) 19:56:52 435.675
AO-85 01 Jul 19:42:51 19:45:53 15° 109° (ESE) 19:48:51 145.980
GOMX 1 01 Jul 19:51:12 19:53:53 16° 269° (W) 19:56:31 467.674
M-CUBED/EXP-1 PRIME 01 Jul 20:01:35 20:04:31 31° 63° (ENE) 20:07:30 437.505
AAUSAT CUBESAT 2 01 Jul 20:01:48 20:05:45 42° 70° (ENE) 20:09:45 437.432
RS-15 01 Jul 20:13:38 20:26:02 88° 233° (SW) 20:38:21 29.354- 29.394
STRAND 1 01 Jul 20:23:54 20:29:06 89° 288° (WNW) 20:34:15 437.568
DANDE 01 Jul 20:25:37 20:26:47 11° 284° (WNW) 20:27:51 436.750
CUBEBUG 2 01 Jul 20:32:19 20:36:31 75° 73° (ENE) 20:40:51 437.445
DOVE 4 01 Jul 20:34:27 20:35:57 12° 272° (W) 20:37:26 437.250
COMPASS 1 01 Jul 20:39:20 20:43:31 64° 259° (W) 20:47:44 437.405
PRISM 01 Jul 20:40:22 20:43:37 22° 94° (E) 20:46:51 437.425
ZACube-1 01 Jul 20:42:43 20:46:47 45° 70° (ENE) 20:50:58 437.345
Oscar 11 01 Jul 20:45:19 20:49:32 52° 71° (ENE) 20:53:48 145.826/435.025
Cosmos 2499 01 Jul 20:51:33 20:58:39 28° 300° (WNW) 21:06:00 435.465 / 435.565
CANX-2 01 Jul 20:52:56 20:56:23 23° 267° (W) 20:59:52 2200.000
AUBIESAT-1 01 Jul 20:53:00 20:56:17 75° 252° (WSW) 20:59:42 437.475
SO-50 01 Jul 20:57:57 21:00:18 13° 18° (NNE) 21:02:36 436.795
FUNcube-1 01 Jul 20:58:04 21:02:15 61° 73° (ENE) 21:06:35 145.935
CINEMA 3 01 Jul 21:01:34 21:04:32 19° 269° (W) 21:07:33 145.822/145.860
SEEDS 01 Jul 21:09:24 21:12:51 24° 267° (W) 21:16:20 437.485
UWE-3 01 Jul 21:12:00 21:16:11 62° 259° (W) 21:20:32 435.000/436.395/437.385
CUTE 1.7 + AOD 2 01 Jul 21:12:57 21:15:48 17° 270° (W) 21:18:41 437.475
DELFI C3 01 Jul 21:17:59 21:21:54 52° 72° (ENE) 21:25:51 145.870
AO-85 01 Jul 21:20:18 21:25:43 84° 126° (SE) 21:30:55 145.980
HUMSAT D 01 Jul 21:24:05 21:27:49 31° 67° (ENE) 21:31:36 437.325/437.525
HO-68 01 Jul 21:32:52 21:38:11 22° 271° (W) 21:43:32 435.675
GONETS M04 01 Jul 21:36:48 21:40:13 13° 315° (NW) 21:43:39
M-CUBED/EXP-1 PRIME 01 Jul 21:36:57 21:39:13 18° 261° (W) 21:41:32 437.505
AAUSAT CUBESAT 2 01 Jul 21:38:17 21:41:27 20° 268° (W) 21:44:37 437.432
YUBILEINY 01 Jul 21:43:19 21:49:39 21° 55° (NE) 21:55:57 435.215
STRAND 1 01 Jul 22:04:35 22:07:33 16° 305° (NW) 22:10:31 437.568
AISAT 01 Jul 22:05:06 22:07:15 14° 58° (ENE) 22:09:24 437.250
CUBEBUG 2 01 Jul 22:12:04 22:13:45 12° 273° (W) 22:15:26 437.445
DX 1 01 Jul 22:12:23 22:14:04 12° 56° (ENE) 22:15:46 434.975-435.025
ESTCUBE 1 01 Jul 22:14:37 22:18:13 24° 63° (ENE) 22:21:50 437.505/2401.250
PRISM 01 Jul 22:15:16 22:19:02 36° 292° (WNW) 22:22:46 437.425
ZACube-1 01 Jul 22:20:10 22:23:19 20° 269° (W) 22:26:33 437.345
Oscar 11 01 Jul 22:23:01 22:25:59 18° 269° (W) 22:29:00 145.826/435.025
RS-15 01 Jul 22:27:14 22:36:58 29° 258° (WSW) 22:46:39 29.354- 29.394
Cosmos 2504 01 Jul 22:27:30 22:31:43 14° 46° (NE) 22:35:51 435.465 / 435.565
TIGRISAT 01 Jul 22:29:03 22:33:00 27° 94° (E) 22:36:59 435.000
50 SAT 01 Jul 22:34:40 22:37:28 21° 65° (ENE) 22:40:18 437.505
UNISAT 6 01 Jul 22:35:19 22:39:31 32° 96° (E) 22:43:44 437.425
FUNcube-1 01 Jul 22:36:29 22:38:58 15° 271° (W) 22:41:28 145.935
SO-50 01 Jul 22:37:44 22:42:09 37° 41° (NE) 22:46:24 436.795
CUBEBUG 1 01 Jul 22:40:12 22:43:52 27° 65° (ENE) 22:47:32 437.445
DELFI C3 01 Jul 22:54:36 22:57:05 16° 270° (W) 22:59:35 145.870
VELOX 1 01 Jul 22:57:47 23:01:51 37° 68° (ENE) 23:05:55 145.980
HUMSAT D 01 Jul 22:59:48 23:03:26 28° 265° (W) 23:07:09 437.325/437.525
Cosmos 2491 01 Jul 23:00:54 23:07:11 23° 77° (ENE) 23:13:26 435.465 / 435.565
AO-85 01 Jul 23:02:24 23:06:47 25° 326° (NW) 23:10:59 145.980
SPROUT 01 Jul 23:13:20 23:16:47 25° 65° (ENE) 23:20:16 437.525
ANTELSAT 01 Jul 23:14:42 23:19:23 75° 103° (ESE) 23:24:06 437.575/2403.000
UKube-1 01 Jul 23:18:31 23:22:31 39° 68° (ENE) 23:26:33 .
NANOSAT C BR1 01 Jul 23:35:58 23:39:18 22° 93° (E) 23:42:38 145.865
AISAT 01 Jul 23:38:43 23:43:06 83° 254° (WSW) 23:47:32 437.250
YUBILEINY 01 Jul 23:39:11 23:48:05 80° 80° (E) 23:56:57 435.215
QB50P1 01 Jul 23:41:01 23:44:36 26° 94° (E) 23:48:11 145.935-145.965
POPSAT HIP 1 01 Jul 23:44:32 23:48:13 27° 95° (E) 23:51:53 437.405
DX 1 01 Jul 23:45:15 23:49:36 88° 68° (ENE) 23:53:58 434.975-435.025
ESTCUBE 1 01 Jul 23:50:27 23:54:48 44° 261° (W) 23:59:10 437.505/2401.250
DUCHIFAT 1 01 Jul 23:54:20 23:58:08 31° 96° (E) 00:01:56 145.980
QB50P2 01 Jul 23:57:38 00:01:41 39° 98° (E) 00:05:42 145.880/145.840
POLYITAN 1 02 Jul 00:00:15 00:04:19 40° 98° (E) 00:08:22 437.675
TIGRISAT 02 Jul 00:05:27 00:09:48 40° 291° (WNW) 00:14:10 435.000
50 SAT 02 Jul 00:07:32 00:10:58 35° 263° (W) 00:14:25 437.505
UNISAT 6 02 Jul 00:12:02 00:16:12 33° 293° (WNW) 00:20:25 437.425
CUBEBUG 1 02 Jul 00:16:05 00:20:03 34° 263° (W) 00:24:02 437.445
SO-50 02 Jul 00:18:19 00:22:39 38° 241° (WSW) 00:26:52 436.795
Cosmos 2504 02 Jul 00:19:00 00:27:40 52° 72° (ENE) 00:35:57 435.465 / 435.565
TISAT 1 02 Jul 00:19:17 00:22:58 31° 67° (ENE) 00:26:41 437.305
PCSat 02 Jul 00:23:04 00:26:04 15° 104° (ESE) 00:29:05 145.827
BUGSAT 1 02 Jul 00:34:15 00:38:06 37° 98° (E) 00:41:58 437.445
VELOX 1 02 Jul 00:34:45 00:38:25 25° 266° (W) 00:42:05 145.980
AO-85 02 Jul 00:47:12 00:49:00 12° 349° (N) 00:50:46 145.980
SPROUT 02 Jul 00:48:38 00:52:34 37° 263° (W) 00:56:34 437.525
ANTELSAT 02 Jul 00:52:41 00:55:33 16° 301° (WNW) 00:58:26 437.575/2403.000
Cosmos 2491 02 Jul 00:54:05 01:02:53 87° 279° (W) 01:11:40 435.465 / 435.565
UKube-1 02 Jul 00:55:14 00:58:42 23° 266° (W) 01:02:11 .
SWISSCUBE 02 Jul 00:59:42 01:03:27 23° 62° (ENE) 01:07:14 437.505
NANOSAT C BR1 02 Jul 01:11:12 01:15:11 40° 291° (WNW) 01:19:11 145.865
QB50P1 02 Jul 01:16:34 01:20:27 35° 292° (WNW) 01:24:19 145.935-145.965
POPSAT HIP 1 02 Jul 01:20:12 01:24:02 33° 292° (WNW) 01:27:51 437.405
BEESAT 02 Jul 01:23:51 01:28:08 33° 66° (ENE) 01:32:26 436.000
DX 1 02 Jul 01:25:33 01:26:24 10° 273° (W) 01:27:17 434.975-435.025
ITUPSAT 1 02 Jul 01:27:26 01:31:47 35° 66° (ENE) 01:36:10 437.325
JAS-2 02 Jul 01:28:40 01:34:17 65° 102° (ESE) 01:39:27 435.910
DUCHIFAT 1 02 Jul 01:30:07 01:33:47 29° 294° (WNW) 01:37:26 145.980
QB50P2 02 Jul 01:33:52 01:37:17 24° 296° (WNW) 01:40:42 145.880/145.840
POLYITAN 1 02 Jul 01:36:31 01:39:55 23° 296° (WNW) 01:43:19 437.675
YUBILEINY 02 Jul 01:37:07 01:43:56 26° 281° (WNW) 01:50:45 435.215
BEESAT 3 02 Jul 01:39:14 01:42:50 36° 119° (ESE) 01:46:28 437.485
TISAT 1 02 Jul 01:55:04 01:58:38 27° 265° (W) 02:02:13 437.305
PCSat 02 Jul 02:03:15 02:08:41 89° 123° (ESE) 02:14:09 145.827
Oscar 19 02 Jul 02:08:37 02:13:41 56° 101° (E) 02:18:43 437.125/150
BUGSAT 1 02 Jul 02:10:02 02:13:18 23° 295° (WNW) 02:16:35 437.445
O/OREOS (USA 219) 02 Jul 02:10:32 02:14:55 55° 110° (ESE) 02:19:18 437.305
Cosmos 2504 02 Jul 02:12:46 02:20:54 42° 274° (W) 02:28:43 435.465 / 435.565
BEESAT 2 02 Jul 02:24:35 02:28:28 58° 123° (ESE) 02:32:24 435.950
AO-85 02 Jul 02:29:34 02:31:40 13° 14° (NNE) 02:33:42 145.980
SWISSCUBE 02 Jul 02:36:17 02:40:57 51° 260° (W) 02:45:39 437.505
ITAMSAT 1 02 Jul 02:40:35 02:44:18 19° 90° (E) 02:47:59 435.822/435.867
KKS-1 02 Jul 02:46:57 02:50:43 28° 65° (ENE) 02:54:30 437.445
Cosmos 2491 02 Jul 02:54:30 03:01:06 23° 303° (WNW) 03:07:45 435.465 / 435.565
Gurwin Techsat 1B 02 Jul 02:56:53 03:02:13 68° 103° (ESE) 03:07:31 435.225
AIST 1 02 Jul 02:57:52 03:01:26 25° 70° (ENE) 03:05:00
BEESAT 02 Jul 03:01:36 03:05:54 33° 264° (W) 03:10:16 436.000
MOZHAYETS 4 02 Jul 03:05:18 03:09:34 38° 68° (ENE) 03:13:52
ITUPSAT 1 02 Jul 03:05:22 03:09:38 32° 264° (W) 03:13:57 437.325
STARS 02 Jul 03:08:32 03:12:04 24° 64° (ENE) 03:15:37 437.465
JAS-2 02 Jul 03:14:41 03:18:49 21° 304° (WNW) 03:22:44 435.910
BEESAT 3 02 Jul 03:17:03 03:20:34 30° 319° (NW) 03:24:07 437.485
AIST 2 02 Jul 03:40:34 03:43:48 23° 115° (ESE) 03:47:04 435.215
GONETS M04 02 Jul 03:41:30 03:48:32 26° 60° (ENE) 03:55:33
PCSat 02 Jul 03:48:32 03:52:49 23° 325° (NW) 03:57:07 145.827
Oscar 19 02 Jul 03:48:39 03:52:39 24° 299° (WNW) 03:56:39 437.125/150
O/OREOS (USA 219) 02 Jul 03:51:10 03:54:39 22° 310° (NW) 03:58:08 437.305
BEESAT 2 02 Jul 04:03:27 04:06:38 22° 323° (NW) 04:09:50 435.950
AO-85 02 Jul 04:09:24 04:13:40 32° 39° (NE) 04:17:35 145.980
AO-7 02 Jul 04:17:52 04:26:02 52° 101° (ESE) 04:34:06 29.400- 29.500
ITAMSAT 1 02 Jul 04:19:02 04:24:14 66° 290° (WNW) 04:29:24 435.822/435.867
KKS-1 02 Jul 04:23:08 04:27:11 35° 263° (W) 04:31:16 437.445
AIST 1 02 Jul 04:35:16 04:39:05 32° 269° (W) 04:42:52
Gurwin Techsat 1B 02 Jul 04:37:45 04:41:40 21° 302° (WNW) 04:45:35 435.225
MOZHAYETS 4 02 Jul 04:42:51 04:46:49 27° 266° (W) 04:50:49
CUBESAT XI-V 02 Jul 04:43:32 04:48:01 46° 70° (ENE) 04:52:30 437.345
Cosmos 2499 02 Jul 04:43:36 04:51:45 39° 67° (ENE) 04:59:25 435.465 / 435.565
STARS 02 Jul 04:44:08 04:48:14 40° 262° (W) 04:52:22 437.465
AIST 2 02 Jul 05:18:02 05:22:02 47° 314° (NW) 05:26:04 435.215
HORYU 2 02 Jul 05:35:23 05:39:49 54° 101° (E) 05:44:13 437.375
PCSat 02 Jul 05:37:31 05:38:21 10° 350° (N) 05:39:11 145.827
GONETS M04 02 Jul 05:37:44 05:46:30 83° 264° (W) 05:55:16
NOAA 18 02 Jul 05:45:06 05:47:56 14° 87° (E) 05:50:43 137.9125
AO-85 02 Jul 05:49:56 05:54:16 42° 241° (WSW) 05:58:13 145.980
CUTE-I 02 Jul 05:50:35 05:53:29 14° 87° (E) 05:56:22 437.470
BRITE-PL 02 Jul 05:56:57 05:59:50 18° 91° (E) 06:02:44 437.365/2234.400
ITAMSAT 1 02 Jul 06:00:50 06:02:45 12° 308° (NW) 06:04:39 435.822/435.867
NOAA 15 02 Jul 06:04:23 06:08:41 25° 93° (E) 06:12:56 137.62
STRAND 1 02 Jul 06:05:04 06:09:26 29° 63° (ENE) 06:13:50 437.568
DANDE 02 Jul 06:09:06 06:13:54 17° 81° (E) 06:18:21 436.750
GOMX 1 02 Jul 06:10:35 06:12:13 12° 89° (E) 06:13:52 467.674
AO-7 02 Jul 06:10:54 06:18:43 45° 302° (WNW) 06:26:30 29.400- 29.500
LilacSat-2 02 Jul 06:15:34 06:18:22 19° 92° (E) 06:21:10 437.200
CUBESAT XI-V 02 Jul 06:21:55 06:25:38 23° 268° (W) 06:29:20 437.345
Cosmos 2499 02 Jul 06:36:45 06:45:15 56° 270° (W) 06:53:12 435.465 / 435.565
PHONESAT 2.4 02 Jul 06:42:11 06:44:26 19° 172° (S) 06:46:42 2401.200-2431.200
CUSAT 1 02 Jul 06:48:02 06:55:06 52° 96° (E) 07:00:50 437.405
DOVE 4 02 Jul 06:49:19 06:51:53 15° 90° (E) 06:54:30 437.250
ISS 02 Jul 06:49:20 06:50:45 12° 135° (SE) 06:52:12 145.825
Cubesat XI-IV 02 Jul 06:55:52 07:01:08 50° 100° (E) 07:06:20 437.490
AIST 2 02 Jul 06:59:37 07:01:31 13° 335° (NNW) 07:03:25 435.215
HO-68 02 Jul 07:09:21 07:11:58 12° 83° (E) 07:14:35 435.675
HORYU 2 02 Jul 07:12:44 07:16:01 20° 299° (WNW) 07:19:17 437.375
PCSat 02 Jul 07:22:21 07:24:26 12° 17° (NNE) 07:26:31 145.827
NOAA 18 02 Jul 07:23:47 07:29:23 86° 107° (ESE) 07:34:57 137.9125
CUTE-I 02 Jul 07:28:50 07:34:16 88° 291° (WNW) 07:39:39 437.470
PRISM 02 Jul 07:32:54 07:36:24 27° 66° (ENE) 07:39:54 437.425
BRITE-PL 02 Jul 07:34:39 07:38:37 45° 289° (WNW) 07:42:39 437.365/2234.400
GONETS M04 02 Jul 07:36:17 07:41:57 20° 285° (WNW) 07:47:39
STRAND 1 02 Jul 07:43:30 07:48:26 45° 262° (W) 07:53:23 437.568
NOAA 15 02 Jul 07:43:39 07:48:45 51° 291° (WNW) 07:53:47 137.62
GOMX 1 02 Jul 07:46:35 07:50:49 75° 284° (WNW) 07:55:14 467.674
DANDE 02 Jul 07:47:35 07:55:53 73° 97° (E) 08:03:02 436.750
LilacSat-2 02 Jul 07:49:11 07:52:51 40° 289° (WNW) 07:56:30 437.200
AO-7 02 Jul 08:05:27 08:09:25 14° 326° (NW) 08:13:24 29.400- 29.500
BEESAT 3 02 Jul 08:16:20 08:18:37 15° 29° (NNE) 08:20:53 437.485
PHONESAT 2.4 02 Jul 08:18:13 08:20:29 19° 188° (S) 08:22:45 2401.200-2431.200
COMPASS 1 02 Jul 08:19:47 08:22:28 16° 90° (E) 08:25:09 437.405
CUBEBUG 2 02 Jul 08:20:50 08:23:15 14° 88° (E) 08:25:41 437.445
ISS 02 Jul 08:23:27 08:26:40 66° 153° (SSE) 08:29:56 145.825
DOVE 4 02 Jul 08:25:39 08:29:59 65° 287° (WNW) 08:34:32 437.250
CUSAT 1 02 Jul 08:30:55 08:37:17 33° 290° (WNW) 08:42:33 437.405
CANX-2 02 Jul 08:33:28 08:37:39 48° 99° (E) 08:41:46 2200.000
Cosmos 2499 02 Jul 08:33:39 08:36:12 12° 293° (WNW) 08:38:45 435.465 / 435.565
Cubesat XI-IV 02 Jul 08:36:26 08:40:56 28° 299° (WNW) 08:45:25 437.490
ANTELSAT 02 Jul 08:42:55 08:45:02 13° 57° (ENE) 08:47:10 437.575/2403.000
FUNcube-1 02 Jul 08:45:37 08:46:05 10° 85° (E) 08:46:34 145.935
SEEDS 02 Jul 08:48:53 08:52:59 44° 99° (E) 08:57:00 437.485
CINEMA 3 02 Jul 08:50:22 08:54:59 74° 102° (ESE) 08:59:47 145.822/145.860
CUTE 1.7 + AOD 2 02 Jul 08:52:34 08:56:52 67° 102° (ESE) 09:01:05 437.475
HO-68 02 Jul 08:53:57 09:01:08 64° 103° (ESE) 09:08:16 435.675
UWE-3 02 Jul 08:58:22 09:02:00 22° 92° (E) 09:05:39 435.000/436.395/437.385
BEESAT 2 02 Jul 09:02:17 09:05:14 19° 34° (NE) 09:08:11 435.950
PCSat 02 Jul 09:04:47 09:09:38 32° 42° (NE) 09:14:27 145.827
Cosmos 2491 02 Jul 09:05:14 09:09:38 14° 48° (NE) 09:14:01 435.465 / 435.565
NOAA 18 02 Jul 09:05:41 09:09:21 18° 305° (NW) 09:13:01 137.9125
PRISM 02 Jul 09:07:54 09:11:37 32° 263° (W) 09:15:22 437.425
CUTE-I 02 Jul 09:10:21 09:13:34 16° 305° (NW) 09:16:47 437.470
M-CUBED/EXP-1 PRIME 02 Jul 09:11:20 09:13:55 16° 98° (E) 09:16:36 437.505
AAUSAT CUBESAT 2 02 Jul 09:15:51 09:19:55 49° 99° (E) 09:23:55 437.432
TIGRISAT 02 Jul 09:31:01 09:34:54 33° 67° (ENE) 09:38:55 435.000
DANDE 02 Jul 09:32:14 09:39:11 30° 294° (WNW) 09:45:17 436.750
UNISAT 6 02 Jul 09:37:24 09:41:29 40° 69° (ENE) 09:45:41 437.425
BEESAT 3 02 Jul 09:53:04 09:57:02 68° 50° (NE) 10:00:58 437.485
COMPASS 1 02 Jul 09:54:16 09:58:23 53° 288° (WNW) 10:02:26 437.405
CUBEBUG 2 02 Jul 09:55:45 10:00:23 78° 286° (WNW) 10:05:07 437.445
ISS 02 Jul 10:00:06 10:03:15 44° 351° (N) 10:06:25 145.825
AUBIESAT-1 02 Jul 10:01:40 10:05:31 43° 105° (ESE) 10:09:37 437.475
ZACube-1 02 Jul 10:03:17 10:07:50 63° 101° (E) 10:12:24 437.345
JAS-2 02 Jul 10:03:58 10:05:54 11° 47° (NE) 10:07:46 435.910
Oscar 11 02 Jul 10:04:57 10:09:18 67° 101° (E) 10:13:38 145.826/435.025
CANX-2 02 Jul 10:10:03 10:13:11 20° 297° (WNW) 10:16:19 2200.000
ANTELSAT 02 Jul 10:16:42 10:21:04 85° 258° (WSW) 10:25:35 437.575/2403.000
FUNcube-1 02 Jul 10:18:26 10:23:02 83° 103° (ESE) 10:27:37 145.935
AIST 2 02 Jul 10:20:28 10:22:21 13° 24° (NNE) 10:24:13 435.215
SEEDS 02 Jul 10:25:12 10:28:24 21° 296° (WNW) 10:31:34 437.485
DELFI C3 02 Jul 10:26:55 10:30:51 53° 100° (E) 10:34:44 145.870
CINEMA 3 02 Jul 10:28:49 10:31:38 16° 300° (WNW) 10:34:31 145.822/145.860
CUTE 1.7 + AOD 2 02 Jul 10:29:41 10:32:13 15° 300° (WNW) 10:34:42 437.475
NANOSAT C BR1 02 Jul 10:31:22 10:34:49 26° 65° (ENE) 10:38:19 145.865
UWE-3 02 Jul 10:34:15 10:38:40 47° 290° (WNW) 10:43:08 435.000/436.395/437.385
QB50P1 02 Jul 10:36:40 10:40:20 30° 67° (ENE) 10:44:01 145.935-145.965
O/OREOS (USA 219) 02 Jul 10:38:06 10:41:55 26° 52° (NE) 10:45:44 437.305
HUMSAT D 02 Jul 10:39:08 10:43:09 36° 97° (E) 10:47:08 437.325/437.525
BEESAT 2 02 Jul 10:39:32 10:43:33 76° 235° (SW) 10:47:32 435.950
POPSAT HIP 1 02 Jul 10:40:14 10:43:58 32° 67° (ENE) 10:47:42 437.405
RS-15 02 Jul 10:41:21 10:51:45 43° 109° (ESE) 11:02:40 29.354- 29.394
HO-68 02 Jul 10:42:15 10:48:26 32° 303° (WNW) 10:54:37 435.675
M-CUBED/EXP-1 PRIME 02 Jul 10:44:50 10:48:41 56° 293° (WNW) 10:52:51 437.505
PCSat 02 Jul 10:48:01 10:53:20 55° 242° (WSW) 10:58:36 145.827
DUCHIFAT 1 02 Jul 10:49:22 10:53:11 35° 68° (ENE) 10:57:01 145.980
YUBILEINY 02 Jul 10:51:41 10:57:10 19° 74° (ENE) 11:02:40 435.215
AAUSAT CUBESAT 2 02 Jul 10:52:08 10:55:04 19° 297° (WNW) 10:57:59 437.432
QB50P2 02 Jul 10:53:21 10:57:22 45° 70° (ENE) 11:01:25 145.880/145.840
POLYITAN 1 02 Jul 10:55:58 10:59:59 46° 70° (ENE) 11:04:03 437.675
Cosmos 2491 02 Jul 11:00:15 11:08:51 57° 74° (ENE) 11:17:23 435.465 / 435.565
TIGRISAT 02 Jul 11:07:52 11:11:38 28° 266° (W) 11:15:31 435.000
UNISAT 6 02 Jul 11:14:51 11:18:22 23° 267° (W) 11:21:58 437.425
AISAT 02 Jul 11:26:45 11:29:12 15° 90° (E) 11:31:38 437.250
BUGSAT 1 02 Jul 11:27:12 11:30:57 40° 69° (ENE) 11:34:44 437.445
BEESAT 3 02 Jul 11:32:01 11:34:14 15° 249° (WSW) 11:36:27 437.485
DX 1 02 Jul 11:32:02 11:33:36 12° 88° (E) 11:35:11 434.975-435.025
50 SAT 02 Jul 11:33:54 11:36:07 15° 91° (E) 11:38:19 437.505
CUBEBUG 2 02 Jul 11:34:34 11:36:16 12° 303° (WNW) 11:37:58 437.445
AUBIESAT-1 02 Jul 11:36:43 11:39:49 22° 301° (WNW) 11:43:04 437.475
ISS 02 Jul 11:36:53 11:40:04 48° 11° (NNE) 11:43:15 145.825
ESTCUBE 1 02 Jul 11:39:32 11:43:29 29° 95° (E) 11:47:24 437.505/2401.250
ZACube-1 02 Jul 11:40:35 11:43:41 18° 299° (WNW) 11:46:47 437.345
Oscar 11 02 Jul 11:42:19 11:44:57 16° 300° (WNW) 11:47:34 145.826/435.025
JAS-2 02 Jul 11:42:40 11:49:38 48° 67° (ENE) 11:55:54 435.910
Oscar 19 02 Jul 11:51:44 11:55:15 19° 58° (ENE) 11:58:46 437.125/150
FUNcube-1 02 Jul 11:56:14 11:58:40 14° 301° (WNW) 12:01:06 145.935
AIST 2 02 Jul 11:57:48 12:01:51 46° 46° (NE) 12:05:52 435.215
CUBEBUG 1 02 Jul 12:00:52 12:04:47 32° 97° (E) 12:08:39 437.445
DELFI C3 02 Jul 12:02:48 12:05:19 16° 298° (WNW) 12:07:50 145.870
NANOSAT C BR1 02 Jul 12:06:37 12:10:26 34° 263° (W) 12:14:18 145.865
QB50P1 02 Jul 12:12:25 12:16:05 29° 264° (W) 12:19:48 145.935-145.965
HUMSAT D 02 Jul 12:15:02 12:18:39 26° 295° (WNW) 12:22:12 437.325/437.525
POPSAT HIP 1 02 Jul 12:16:10 12:19:45 27° 265° (W) 12:23:24 437.405
O/OREOS (USA 219) 02 Jul 12:17:15 12:21:29 42° 252° (WSW) 12:25:43 437.305
VELOX 1 02 Jul 12:20:23 12:24:38 46° 99° (E) 12:28:51 145.980
DUCHIFAT 1 02 Jul 12:25:34 12:28:58 24° 266° (W) 12:32:24 145.980
QB50P2 02 Jul 12:30:23 12:33:24 19° 268° (W) 12:36:28 145.880/145.840
SPROUT 02 Jul 12:30:59 12:34:43 28° 95° (E) 12:38:26 437.525
POLYITAN 1 02 Jul 12:33:04 12:36:03 19° 268° (W) 12:39:04 437.675
UKube-1 02 Jul 12:37:49 12:41:57 43° 99° (E) 12:46:03 .
Gurwin Techsat 1B 02 Jul 12:43:04 12:47:16 25° 60° (ENE) 12:51:30 435.225
YUBILEINY 02 Jul 12:43:48 12:52:30 81° 96° (E) 13:01:19 435.215
RS-15 02 Jul 12:52:02 13:03:35 71° 314° (NW) 13:15:49 29.354- 29.394
Cosmos 2491 02 Jul 12:57:38 13:05:20 37° 276° (W) 13:13:03 435.465 / 435.565
Cosmos 2504 02 Jul 13:01:15 13:08:44 38° 84° (E) 13:16:36 435.465 / 435.565
AISAT 02 Jul 13:01:45 13:06:08 66° 287° (WNW) 13:10:30 437.250
BUGSAT 1 02 Jul 13:03:34 13:06:31 20° 267° (W) 13:09:29 437.445
DX 1 02 Jul 13:06:01 13:10:22 80° 288° (WNW) 13:14:42 434.975-435.025
50 SAT 02 Jul 13:06:31 13:10:03 44° 289° (WNW) 13:13:33 437.505
ISS 02 Jul 13:13:23 13:16:35 52° 210° (SSW) 13:19:46 145.825
ESTCUBE 1 02 Jul 13:16:16 13:20:18 33° 293° (WNW) 13:24:20 437.505/2401.250
JAS-2 02 Jul 13:27:52 13:34:44 40° 264° (W) 13:40:59 435.910
Oscar 19 02 Jul 13:28:53 13:34:01 73° 257° (WSW) 13:39:11 437.125/150
AO-7 02 Jul 13:30:22 13:36:53 26° 47° (NE) 13:43:25 29.400- 29.500
TISAT 1 02 Jul 13:34:50 13:38:43 34° 97° (E) 13:42:33 437.305
AIST 2 02 Jul 13:36:46 13:40:06 24° 245° (WSW) 13:43:26 435.215
CUBEBUG 1 02 Jul 13:37:16 13:40:59 29° 294° (WNW) 13:44:42 437.445
VELOX 1 02 Jul 13:57:28 14:00:51 22° 297° (WNW) 14:04:13 145.980
ITAMSAT 1 02 Jul 14:01:26 14:06:18 41° 67° (ENE) 14:11:13 435.822/435.867
SPROUT 02 Jul 14:06:51 14:10:40 32° 293° (WNW) 14:14:29 437.525
UKube-1 02 Jul 14:14:23 14:17:45 22° 297° (WNW) 14:21:06 .
Gurwin Techsat 1B 02 Jul 14:21:39 14:26:52 57° 259° (W) 14:32:08 435.225
SWISSCUBE 02 Jul 14:33:03 14:37:20 31° 96° (E) 14:41:35 437.505
SO-50 02 Jul 14:35:14 14:39:32 31° 117° (ESE) 14:43:49 436.795
YUBILEINY 02 Jul 14:43:15 14:50:23 27° 300° (WNW) 14:57:37 435.215
DX 1 02 Jul 14:44:37 14:45:50 11° 304° (NW) 14:47:03 434.975-435.025
Cosmos 2504 02 Jul 14:53:37 15:01:48 56° 287° (WNW) 15:10:29 435.465 / 435.565
BEESAT 02 Jul 14:57:35 15:02:14 48° 99° (E) 15:06:51 436.000
ITUPSAT 1 02 Jul 15:01:39 15:06:22 51° 100° (E) 15:11:01 437.325
HORYU 2 02 Jul 15:03:52 15:05:05 11° 55° (NE) 15:06:20 437.375
RS-15 02 Jul 15:07:49 15:18:39 38° 346° (NNW) 15:29:52 29.354- 29.394
TISAT 1 02 Jul 15:10:44 15:14:15 26° 295° (WNW) 15:17:46 437.305
Oscar 19 02 Jul 15:13:50 15:14:15 10° 275° (W) 15:14:41 437.125/150
AO-7 02 Jul 15:20:17 15:28:39 88° 69° (ENE) 15:37:06 29.400- 29.500
AIST 1 02 Jul 15:32:43 15:34:36 13° 83° (E) 15:36:30
ITAMSAT 1 02 Jul 15:41:18 15:45:53 31° 265° (W) 15:50:31 435.822/435.867
NOAA 15 02 Jul 15:53:12 15:53:59 10° 50° (NE) 15:54:46 137.62
KKS-1 02 Jul 16:10:13 16:14:17 33° 97° (E) 16:18:19 437.445
SWISSCUBE 02 Jul 16:10:48 16:15:10 35° 294° (WNW) 16:19:29 437.505
SO-50 02 Jul 16:15:10 16:19:54 47° 316° (NW) 16:24:36 436.795
STARS 02 Jul 16:29:58 16:33:47 28° 95° (E) 16:37:35 437.465
MOZHAYETS 4 02 Jul 16:33:28 16:38:03 55° 100° (E) 16:42:35
BEESAT 02 Jul 16:35:55 16:39:45 24° 298° (WNW) 16:43:35 436.000
HORYU 2 02 Jul 16:36:26 16:40:52 76° 73° (ENE) 16:45:21 437.375
ITUPSAT 1 02 Jul 16:40:07 16:43:53 23° 299° (WNW) 16:47:38 437.325
Cubesat XI-IV 02 Jul 16:43:25 16:47:12 20° 57° (ENE) 16:50:59 437.490
GONETS M04 02 Jul 16:48:53 16:55:23 24° 78° (ENE) 17:01:52
Cosmos 2504 02 Jul 16:53:06 16:57:36 15° 312° (NW) 17:02:14 435.465 / 435.565
LilacSat-2 02 Jul 17:01:27 17:03:50 16° 63° (ENE) 17:06:14 437.200
AIST 1 02 Jul 17:07:20 17:11:37 68° 281° (W) 17:15:54
BRITE-PL 02 Jul 17:10:34 17:14:52 34° 68° (ENE) 17:18:53 437.365/2234.400
NOAA 18 02 Jul 17:13:51 17:18:50 37° 64° (ENE) 17:23:52 137.9125
CUTE-I 02 Jul 17:14:59 17:19:45 34° 64° (ENE) 17:24:33 437.470
AO-7 02 Jul 17:16:12 17:22:28 23° 270° (W) 17:28:48 29.400- 29.500
CUSAT 1 02 Jul 17:21:08 17:24:04 24° 66° (ENE) 17:26:32 437.405
GOMX 1 02 Jul 17:21:38 17:24:49 20° 64° (ENE) 17:27:54 467.674
RS-15 02 Jul 17:23:56 17:35:12 40° 20° (NNE) 17:46:37 29.354- 29.394
Cosmos 2499 02 Jul 17:24:45 17:31:40 28° 79° (E) 17:38:45 435.465 / 435.565
NOAA 15 02 Jul 17:27:31 17:32:40 56° 69° (ENE) 17:37:50 137.62
HO-68 02 Jul 17:42:00 17:46:19 17° 46° (NE) 17:50:39 435.675
KKS-1 02 Jul 17:46:55 17:50:47 30° 295° (WNW) 17:54:39 437.445
DOVE 4 02 Jul 17:58:23 18:01:33 21° 64° (ENE) 18:04:40 437.250
SO-50 02 Jul 17:58:40 18:01:32 15° 338° (NNW) 18:04:25 436.795
STARS 02 Jul 18:06:11 18:10:11 34° 293° (WNW) 18:14:10 437.465
MOZHAYETS 4 02 Jul 18:11:26 18:14:50 21° 299° (WNW) 18:18:14
CUBESAT XI-V 02 Jul 18:13:37 18:18:16 72° 102° (ESE) 18:22:51 437.345
HORYU 2 02 Jul 18:15:56 18:17:58 13° 272° (W) 18:20:02 437.375
CINEMA 3 02 Jul 18:21:39 18:23:15 12° 57° (ENE) 18:24:52 145.822/145.860
